Location: ??????????
(54.7560°N, 39.1389°E)
Time: 13:15:52
(UTC+00:00)

NOSS 3-1 (C) - Pass Details

Date: 19 May 2025
Orbit: 625 x 1577 km, 63.4° (Epoch: 18 June)

Event Time Altitude Azimuth Distance (km) Brightness Sun altitude
Rises 20:21:12 0° 243° (WSW) 3,069 6.0 -14.2°
Reaches altitude 10° 20:23:21 10° 246° (WSW) 2,232 5.3 -14.3°
Maximum altitude 20:28:24 64° 329° (NNW) 929 3.7 -14.5°
Drops below altitude 10° 20:34:45 10° 51° (NE) 2,792 6.3 -14.7°
Sets 20:37:44 0° 54° (NE) 3,906 7.0 -14.7°
